Stations météo

réclame
Mon MeteoGroup
Le Havre/Octeville, France (7046): Température de l'air & dewpoint: 19.01.2020 04:00:00 - 25.01.2020 04:00:00 (CET)Le Havre/Octeville, France (7046): Vitesse du vent & gusts: 19.01.2020 04:00:00 - 25.01.2020 04:00:00 (CET)Le Havre/Octeville, France (7046): Direction du vent: 19.01.2020 04:00:00 - 25.01.2020 04:00:00 (CET)Le Havre/Octeville, France (7046): reduced air pressure: 19.01.2020 04:00:00 - 25.01.2020 04:00:00 (CET)Le Havre/Octeville, France (7046): visibility: 19.01.2020 04:00:00 - 25.01.2020 04:00:00 (CET)Le Havre/Octeville, France (7046): Quantités de précipitations: 19.01.2020 04:00:00 - 25.01.2020 04:00:00 (CET)
Date & Time tt [°C] td [°C] ff [km/h] ff [knt] fx [km/h] fx [knt] dd ppp [hPa] vv [km] rr [mm]
25.01.2020 04:00:00 1,5 1,4 10 5 17 9 ESE 1021,1 0,1 0,0
25.01.2020 03:00:00 1,7 1,6 9 5 15 8 SE 1021,6 0,1 0,0
25.01.2020 02:00:00 1,8 1,7 11 6 18 10 ESE 1021,8 0,2 0,0
25.01.2020 01:00:00 2,0 1,9 11 6 16 9 SE 1022,0 0,2 0,0
25.01.2020 00:00:00 1,8 1,5 9 5 13 7 ESE 1022,2 0,2 0,0
24.01.2020 23:00:00 1,6 1,3 8 4 18 10 ESE 1022,8 0,3 0,0
24.01.2020 22:00:00 1,5 1,1 11 6 15 8 ESE 1022,8 0,3 0,0
24.01.2020 21:00:00 1,6 1,0 9 5 17 9 ESE 1022,8 1,1 0,0
24.01.2020 20:00:00 1,6 0,6 11 6 23 12 SSE 1022,7 2,7 0,0
24.01.2020 19:00:00 1,6 0,4 8 5 14 7 ESE 1022,8 3,5 0,0
24.01.2020 18:00:00 1,7 0,4 9 5 18 10 ESE 1022,8 3,4 0,0
24.01.2020 17:00:00 2,0 0,4 11 6 18 10 SE 1022,2 3,6 0,0
24.01.2020 16:00:00 2,3 0,4 11 6 21 12 SE 1022,5 4,6 0,0
24.01.2020 15:00:00 2,2 0,3 14 8 24 13 SE 1022,6 5 0,0
24.01.2020 14:00:00 1,5 0,0 13 7 19 10 ESE 1023,4 4,7 0,0
24.01.2020 13:00:00 1,3 0,0 7 4 13 7 E 1024,0 4,7 0,0
24.01.2020 12:00:00 1,2 0,0 7 4 16 9 SE 1024,5 2,9 0,0
24.01.2020 11:00:00 0,8 -0,2 9 5 18 10 ESE 1024,3 3,9 0,0
24.01.2020 10:00:00 0,5 -0,4 7 4 19 10 E 1024,2 3,1 0,0
24.01.2020 09:00:00 0,5 -0,4 11 6 17 9 ESE 1023,6 2,9 0,0
24.01.2020 08:00:00 0,5 -0,4 12 7 19 11 ESE 1023,7 3,1 0,0
24.01.2020 07:00:00 0,8 -0,1 8 4 13 7 ESE 1023,5 2,9 0,0
24.01.2020 06:00:00 0,7 -0,3 8 4 14 8 E 1023,6 3,3 0,0
24.01.2020 05:00:00 1,3 0,3 11 6 16 9 SSE 1024,0 3,1 0,0
24.01.2020 04:00:00 1,6 0,9 5 3 13 7 E 1024,2 2,9 0,0
24.01.2020 03:00:00 1,6 1,0 11 6 17 9 E 1025,1 3,1 0,0
24.01.2020 02:00:00 1,8 1,2 9 5 17 9 E 1025,2 2,7 0,0
24.01.2020 01:00:00 2,2 1,8 9 5 17 9 ESE 1025,8 2,3 0,0
24.01.2020 00:00:00 2,5 2,1 8 4 13 7 ESE 1026,0 1,7 0,0
23.01.2020 23:00:00 2,4 1,8 7 4 13 7 E 1026,4 2,6 0,0
23.01.2020 22:00:00 2,1 1,7 10 5 18 10 ESE 1026,7 3,0 0,0
23.01.2020 21:00:00 1,1 0,5 5 3 11 6 E 1026,2 1,4 0,0
23.01.2020 20:00:00 1,7 1,0 9 5 12 6 ESE 1026,5 2,6 0,0
23.01.2020 19:00:00 1,9 1,2 10 5 13 7 E 1026,5 2,9 0,0
23.01.2020 18:00:00 2,5 1,5 6 3 16 9 E 1027,1 3,5 0,0
23.01.2020 17:00:00 3,8 2,6 11 6 22 12 E 1027,2 6 0,0
23.01.2020 16:00:00 3,8 2,8 13 7 25 13 E 1027,7 6 0,0
23.01.2020 15:00:00 3,3 2,3 16 8 27 15 E 1028,2 4,8 0,0
23.01.2020 14:00:00 2,6 1,6 17 9 28 15 E 1029,1 5 0,0
23.01.2020 13:00:00 2,4 1,1 14 8 27 15 E 1029,9 5 0,0
23.01.2020 12:00:00 1,3 0,4 18 10 26 14 E 1030,9 4,1 0,0
23.01.2020 11:00:00 0,3 -0,3 16 9 26 14 E 1031,3 3,4 0,0
23.01.2020 10:00:00 0,3 -0,1 12 6 17 9 E 1031,6 2,0 0,0
23.01.2020 09:00:00 -0,8 -1,4 6 3 15 8 E 1031,7 1,7 0,0
23.01.2020 08:00:00 -0,5 -1,1 10 6 29 16 ENE 1031,8 2,2 0,0
23.01.2020 07:00:00 -0,1 -0,5 21 12 34 18 ESE 1031,7 1,8 0,0
23.01.2020 06:00:00 -0,6 -1,0 16 8 21 11 E 1031,8 2,1 0,0
23.01.2020 05:00:00 -0,6 -1,2 11 6 21 11 E 1032,1 2,4 0,0
23.01.2020 04:00:00 -0,7 -1,3 13 7 23 12 E 1032,7 1,8 0,0
23.01.2020 03:00:00 -1,0 -1,7 16 9 24 13 ESE 1033,3 2,3 0,0
23.01.2020 02:00:00 -0,6 -1,3 15 8 28 15 E 1033,8 2,4 0,0
23.01.2020 01:00:00 0,0 -0,7 19 10 28 15 ESE 1034,4 2,6 0,0
23.01.2020 00:00:00 0,4 -0,3 21 11 29 16 E 1034,5 2,6 0,0
22.01.2020 23:00:00 1,1 0,2 19 10 29 16 E 1034,6 3,0 0,0
22.01.2020 22:00:00 1,8 0,9 20 11 30 16 E 1034,8 3,6 0,0
22.01.2020 21:00:00 1,5 0,3 17 9 28 15 E 1034,7 3,3 0,0
22.01.2020 20:00:00 2,0 0,5 16 9 24 13 E 1034,8 4,5 0,0
22.01.2020 19:00:00 1,9 0,4 12 6 21 11 E 1034,8 4,3 0,0
22.01.2020 18:00:00 2,0 0,1 11 6 18 10 ENE 1034,8 4,8 0,0
22.01.2020 17:00:00 3,7 0,7 11 6 18 10 E 1034,8 8 0,0
22.01.2020 16:00:00 4,9 0,8 12 6 22 12 E 1035,2 12 0,0
22.01.2020 15:00:00 4,8 1,3 16 9 31 17 E 1035,2 11 0,0
22.01.2020 14:00:00 4,6 1,6 14 8 32 18 E 1036,2 10 0,0
22.01.2020 13:00:00 4,2 2,1 16 8 24 13 E 1036,9 7 0,0
22.01.2020 12:00:00 2,7 1,5 9 5 17 9 E 1037,4 3,9 0,0
22.01.2020 11:00:00 1,4 -0,1 9 5 13 7 E 1037,3 4,3 0,0
22.01.2020 10:00:00 0,4 -0,9 9 5 12 6 ENE 1037,0 7 0,0
22.01.2020 09:00:00 -1,5 -2,6 7 4 11 6 ENE 1037,0 6 0,0
22.01.2020 08:00:00 -2,1 -3,4 5 3 9 5 E 1037,2 8 0,0
22.01.2020 07:00:00 -2,3 -3,7 5 3 8 5 E 1037,2 9 0,0
22.01.2020 06:00:00 -1,6 -2,9 4 2 6 4 E 1037,6 13 0,0
22.01.2020 05:00:00 -1,9 -3,5 4 2 7 4 SE 1038,0 11 0,0
22.01.2020 04:00:00 -2,0 -3,7 4 2 8 5 E 1038,7 12 0,0
22.01.2020 03:00:00 -0,3 -1,6 8 4 12 6 ENE 1039,0 14 0,0
22.01.2020 02:00:00 -1,7 -2,8 4 2 8 4 NNE 1038,9 6 0,0
22.01.2020 01:00:00 -1,0 -2,6 5 3 10 5 NE 1039,4 4,3 0,0
22.01.2020 00:00:00 0,7 -1,1 8 4 13 7 ESE 1039,6 8 0,0
21.01.2020 23:00:00 1,2 -1,0 10 5 16 9 ESE 1039,7 8 0,0
21.01.2020 22:00:00 1,4 -0,7 13 7 18 10 ESE 1040,0 9 0,0
21.01.2020 21:00:00 1,4 -1,0 9 5 18 10 E 1040,4 11 0,0
21.01.2020 20:00:00 1,4 -1,3 10 6 15 8 E 1040,4 11 0,0
21.01.2020 19:00:00 1,7 -0,6 9 5 13 7 NE 1040,3 13 0,0
21.01.2020 18:00:00 3,5 0,0 7 4 11 6 E 1039,8 16 0,0
21.01.2020 17:00:00 4,7 -0,1 9 5 11 6 ENE 1040,1 20 0,0
21.01.2020 16:00:00 5,9 0,6 8 4 14 8 E 1040,4 18 0,0
21.01.2020 15:00:00 5,8 -0,1 9 5 14 8 E 1040,9 13 0,0
21.01.2020 14:00:00 5,5 1,4 7 4 11 6 E 1041,4 9 0,0
21.01.2020 13:00:00 4,9 1,6 5 3 11 6 ENE 1042,1 9 0,0
21.01.2020 12:00:00 4,0 1,4 6 4 11 6 SSE 1042,9 9 0,0
21.01.2020 11:00:00 2,8 1,0 4 2 7 4 E 1042,9 7 0,0
21.01.2020 10:00:00 1,7 0,5 5 3 10 6 E 1042,8 4,9 0,0
21.01.2020 09:00:00 1,8 0,5 9 5 16 9 ESE 1042,6 6 0,0
21.01.2020 08:00:00 2,0 0,7 10 6 25 14 ESE 1042,3 6 0,0
21.01.2020 07:00:00 3,3 2,3 9 5 14 7 ESE 1041,9 7 0,0
21.01.2020 06:00:00 3,6 2,4 6 3 11 6 E 1042,0 10 0,0
21.01.2020 05:00:00 3,9 2,4 5 3 13 7 E 1042,4 10 0,0
21.01.2020 04:00:00 4,1 2,8 9 5 15 8 ESE 1043,0 10 0,0
21.01.2020 03:00:00 4,1 3,1 7 4 10 5 ESE 1043,6 9 0,0
21.01.2020 02:00:00 4,5 3,3 9 5 13 7 E 1044,2 12 0,0
21.01.2020 01:00:00 4,8 3,6 9 5 13 7 ESE 1044,6 15 0,0
21.01.2020 00:00:00 4,9 3,6 8 4 10 6 E 1044,8 15 0,0
20.01.2020 23:00:00 5,1 3,6 7 4 14 8 E 1045,1 17 0,0
20.01.2020 22:00:00 5,3 3,6 8 4 16 9 E 1045,3 18 0,0
20.01.2020 21:00:00 5,2 3,7 10 5 21 11 NE 1045,3 18 0,0
20.01.2020 20:00:00 5,3 3,6 15 8 30 16 NE 1045,5 15 0,0
20.01.2020 19:00:00 5,0 3,3 14 8 19 10 NE 1045,5 15 0,0
20.01.2020 18:00:00 5,3 3,3 11 6 17 9 NE 1046,1 18 0,0
20.01.2020 17:00:00 5,6 3,6 7 4 15 8 NNE 1046,3 16 0,0
20.01.2020 16:00:00 5,8 3,5 11 6 15 8 NE 1046,7 15 0,0
20.01.2020 15:00:00 5,8 3,5 8 5 14 8 E 1047,1 15 0,0
20.01.2020 14:00:00 5,5 3,2 10 5 22 12 E 1047,9 16 0,0
20.01.2020 13:00:00 6,2 3,9 15 8 23 13 E 1048,6 12 0,0
20.01.2020 12:00:00 6,3 3,8 10 6 18 10 E 1049,0 12 0,0
20.01.2020 11:00:00 5,2 3,4 9 5 14 8 E 1049,2 15 0,0
20.01.2020 10:00:00 4,0 3,0 7 4 13 7 E 1048,6 16 0,0
20.01.2020 09:00:00 2,9 2,0 9 5 19 10 E 1048,5 14 0,0
20.01.2020 08:00:00 2,7 1,8 13 7 18 10 ENE 1048,4 15 0,0
20.01.2020 07:00:00 2,1 1,2 9 5 13 7 E 1048,4 15 0,0
20.01.2020 06:00:00 2,4 1,4 6 3 12 7 E 1048,0 15 0,0
20.01.2020 05:00:00 2,6 1,6 8 5 13 7 E 1047,6 15 0,0
20.01.2020 04:00:00 2,9 1,9 8 5 14 8 ESE 1047,5 13 0,0
20.01.2020 03:00:00 3,2 2,0 9 5 18 10 E 1048,1 16 0,0
20.01.2020 02:00:00 3,5 2,3 11 6 16 9 E 1048,4 15 0,0
20.01.2020 01:00:00 3,7 2,4 9 5 18 10 E 1048,2 15 0,0
20.01.2020 00:00:00 4,1 2,6 12 6 21 11 ENE 1048,0 18 0,0
19.01.2020 23:00:00 4,7 3,0 15 8 23 13 ENE 1047,9 20 0,0
19.01.2020 22:00:00 4,5 2,7 13 7 26 14 ENE 1047,4 33 0,0
19.01.2020 21:00:00 4,8 2,5 20 11 34 18 ENE 1047,1 41 0,0
19.01.2020 20:00:00 4,9 2,8 17 9 33 18 NE 1046,9 34 0,2
19.01.2020 19:00:00 5,0 3,0 16 9 43 23 ENE 1046,6 19 0,4
19.01.2020 18:00:00 6,2 3,0 23 13 39 21 NE 1045,2 20 0,0
19.01.2020 17:00:00 6,7 3,1 25 13 38 20 NNE 1044,7 20 0,0
19.01.2020 16:00:00 7,4 2,7 27 15 39 21 NE 1044,1 33 0,0
19.01.2020 15:00:00 8,1 3,4 25 13 42 23 NE 1043,6 19 0,0
19.01.2020 14:00:00 7,4 3,3 26 14 37 20 NE 1043,6 19 0,0
19.01.2020 13:00:00 7,6 2,9 24 13 37 20 ENE 1043,6 19 0,0
19.01.2020 12:00:00 7,2 3,2 25 13 36 19 NE 1043,6 44 0,0
19.01.2020 11:00:00 6,4 3,4 21 12 32 17 NE 1043,1 20 0,0
19.01.2020 10:00:00 3,7 1,7 11 6 18 10 NE 1042,4 19 0,0
19.01.2020 09:00:00 1,5 0,2 14 8 16 9 NE 1041,4 41 0,0
19.01.2020 08:00:00 1,7 0,1 13 7 17 9 NE 1040,3 39 0,0
19.01.2020 07:00:00 2,5 0,9 12 6 18 10 NE 1039,2 44 0,0
19.01.2020 06:00:00 2,2 0,6 10 6 17 9 NE 1038,4 41 0,0
19.01.2020 05:00:00 3,2 1,4 13 7 16 9 NE 1038,0 40 0,0
19.01.2020 04:00:00 2,4 0,6 12 7 17 9 NE 1037,5 37 0,0

tt = Température de l'air
td = dewpoint
ff = Vitesse du vent
fx = gusts
dd = Direction du vent
ppp = reduced air pressure
vv = visibility
rr = Quantités de précipitations

stations d'obs. à proximité